Hourly Data Report for September 09, 2017

All times are specified in Local Standard Time (LST). Add 1 hour to adjust for Daylight Saving Time where and when it is observed.

PENTICTON A
BRITISH COLUMBIA

49°27'45.000" N
119°36'08.000" W
344.40 m
1126146
71889
YYF

Download Data

Hourly Data (September 2017)
Hourly Data Report for September 9, 2017
Temp Definition
°C
Dew Point Temp Definition
°C
Rel Hum Definition
%
Wind Dir Definition
10's deg

Wind Spd Definition
km/h
Visibility Definition
km
Stn Press Definition
kPa
Hmdx Definition


Wind Chill Definition


Weather Definition


TIME
00:00 Legend Double Dagger 20.0 16.0 77 31 10 9.7 96.99 25   Smoke
01:00 Legend Double Dagger 19.2 15.9 81 35 10 9.7 97.00     Smoke
02:00 Legend Double Dagger 20.7 16.3 76 34 9 9.7 96.99 26   Smoke
03:00 Legend Double Dagger 19.3 15.7 79 34 5 9.7 96.95     Smoke
04:00 Legend Double Dagger 19.7 15.1 74 36 1 9.7 96.95     Smoke
05:00 Legend Double Dagger 19.4 14.8 74 30 4 16.1 96.99     LegendNANA
06:00 Legend Double Dagger 19.2 15.4 79 29 3 16.1 97.00     LegendNANA
07:00 Legend Double Dagger 19.6 15.2 76 2 6 16.1 97.08     Cloudy
08:00 Legend Double Dagger 19.1 15.8 81 11 5 16.1 97.10     Rain
09:00 Legend Double Dagger 19.2 15.4 78 35 13 16.1 97.17     Rain
10:00 Legend Double Dagger 19.1 17.4 89 30 8 12.9 97.19     Rain
11:00 Legend Double Dagger 19.9 16.9 83 18 10 12.9 97.16     Rain
12:00 Legend Double Dagger 20.3 16.4 78 15 14 12.9 97.15 25   LegendNANA
13:00 Legend Double Dagger 21.1 16.7 76 17 17 12.9 97.13 26   Cloudy
14:00 Legend Double Dagger 22.4 15.9 67 18 18 12.9 97.09 27   LegendNANA
15:00 Legend Double Dagger 22.6 14.8 61 17 22 12.9 97.13 26   LegendNANA
16:00 Legend Double Dagger 22.5 13.1 55 18 20 12.9 97.20 25   Mostly Cloudy
17:00 Legend Double Dagger 21.1 11.1 52 19 10 24.1 97.25     LegendNANA
18:00 Legend Double Dagger 21.2 9.9 48 32 12 24.1 97.34     LegendNANA
19:00 Legend Double Dagger 21.8 8.0 40 33 15 24.1 97.43     Mostly Cloudy
20:00 Legend Double Dagger 19.7 8.9 50 1 20 24.1 97.53     LegendNANA
21:00 Legend Double Dagger 17.9 9.2 56 36 9 24.1 97.62     LegendNANA
22:00 Legend Double Dagger 17.7 8.6 55 36 14 24.1 97.67     Mostly Cloudy
23:00 Legend Double Dagger 18.2 7.6 50 3 15 24.1 97.77     LegendNANA

Notes on Data Quality.

Legend

  • E = Estimated
  • M = Missing
  • NA = Not Available
  • ‡ = Partner data that is not subject to review by the National Climate Archives
Date modified: